Location: ??????
(56.0120°N, 39.1740°E)
Time: 07:45:54
(UTC+00:00)

Meteor 2-1 Rocket - Pass Details

Date: 14 April 2026
Orbit: 824 x 910 km, 81.3° (Epoch: 14 May)

Event Time Altitude Azimuth Distance (km) Brightness Sun altitude
Exits shadow 20:53:52 53° 141° (SE) 1,102 4.4 -24.0°
Maximum altitude 20:54:55 61° 98° (E) 1,013 4.4 -24.1°
Drops below altitude 10° 21:00:39 10° 19° (NNE) 2,558 7.6 -24.2°
Sets 21:03:06 0° 16° (NNE) 3,489 8.5 -24.2°
